WA6MEM Weather Reports


Display with metric or nautical units.
time (UTC)temp
F
wind
direction
speed
MPH
gust
MPH
rain 1hr
in
rain 24hr
in
rain mn
in
humidity
%
barometer
mb
20260903013531 66 202 2.0 0.0 0.00 0.00 0.00 79 1012.7
20260903013030 66 194 2.0 0.0 0.00 0.00 0.00 78 1012.7
20260903012529 66 165 3.0 0.0 0.00 0.00 0.00 77 1012.6
20260903012032 67 199 3.0 0.0 0.00 0.00 0.00 76 1012.6
20260903011530 67 212 3.0 0.0 0.00 0.00 0.00 76 1012.6
20260903011029 68 223 2.0 0.0 0.00 0.00 0.00 76 1012.4
20260903010529 68 182 3.0 0.0 0.00 0.00 0.00 76 1012.4
20260903010029 68 234 3.0 0.0 0.00 0.00 0.00 74 1012.4
20260903005531 69 304 2.0 0.0 0.00 0.00 0.00 74 1012.5
20260903005032 69 213 2.0 0.0 0.00 0.00 0.00 75 1012.5
20260903004528 69 212 3.0 0.0 0.00 0.00 0.00 75 1012.5
20260903004028 69 208 3.0 0.0 0.00 0.00 0.00 76 1012.6
20260903003528 69 195 2.0 0.0 0.00 0.00 0.00 76 1012.6
20260903003028 69 223 2.0 0.0 0.00 0.00 0.00 77 1012.6
20260903002527 69 240 3.0 0.0 0.00 0.00 0.00 77 1012.5
20260903002027 69 186 3.0 0.0 0.00 0.00 0.00 78 1012.5
20260903001526 69 226 3.0 0.0 0.00 0.00 0.00 77 1012.5
20260903001028 69 232 3.0 0.0 0.00 0.00 0.00 78 1012.6
20260903000526 69 65 3.0 0.0 0.00 0.00 0.00 79 1012.6
20260903000026 69 254 3.0 0.0 0.00 0.00 0.00 79 1012.6
20260902235526 69 318 4.0 0.0 0.00 0.00 0.00 77 1012.7
20260902235025 69 192 4.0 0.0 0.00 0.00 0.00 78 1012.7
20260902234525 70 267 4.0 0.0 0.00 0.00 0.00 77 1012.7
20260902234025 70 232 3.0 0.0 0.00 0.00 0.00 76 1012.7
20260902233525 71 204 3.0 0.0 0.00 0.00 0.00 75 1012.7
20260902233025 71 199 3.0 0.0 0.00 0.00 0.00 75 1012.7
20260902232524 71 223 4.0 0.0 0.00 0.00 0.00 75 1012.7
20260902232026 71 213 3.0 0.0 0.00 0.00 0.00 75 1012.7
20260902231524 71 154 3.0 0.0 0.00 0.00 0.00 74 1012.7
20260902231024 71 273 3.0 0.0 0.00 0.00 0.00 75 1013.0
20260902230523 71 155 4.0 0.0 0.00 0.00 0.00 75 1013.0
20260902230023 70 212 3.0 0.0 0.00 0.00 0.00 75 1013.0
20260902225525 70 325 4.0 0.0 0.00 0.00 0.00 73 1013.0
20260902225028 71 314 4.0 0.0 0.00 0.00 0.00 70 1013.0
20260902224524 72 221 3.0 0.0 0.00 0.00 0.00 69 1013.0
20260902224022 72 198 3.0 0.0 0.00 0.00 0.00 67 1013.1
20260902223522 72 204 3.0 0.0 0.00 0.00 0.00 66 1013.1
20260902223028 73 153 3.0 0.0 0.00 0.00 0.00 61 1013.1
20260902222522 73 252 4.0 0.0 0.00 0.00 0.00 59 1013.3
20260902222021 73 250 3.0 0.0 0.00 0.00 0.00 59 1013.3
20260902221526 73 201 3.0 0.0 0.00 0.00 0.00 54 1013.3
20260902221021 73 206 4.0 0.0 0.00 0.00 0.00 56 1013.5
20260902220521 73 203 3.0 0.0 0.00 0.00 0.00 56 1013.5
20260902220026 74 267 3.0 0.0 0.00 0.00 0.00 56 1013.5
20260902215519 74 213 3.0 0.0 0.00 0.00 0.00 57 1013.6
20260902215018 74 263 3.0 0.0 0.00 0.00 0.00 59 1013.6
20260902214517 73 175 3.0 0.0 0.00 0.00 0.00 67 1013.6
20260902214016 73 202 3.0 0.0 0.00 0.00 0.00 68 1013.7
20260902213515 72 162 4.0 0.0 0.00 0.00 0.00 67 1013.7
20260902213016 72 161 4.0 0.0 0.00 0.00 0.00 67 1013.7
20260902212518 73 173 4.0 0.0 0.00 0.00 0.00 66 1013.9
20260902212018 73 84 3.0 0.0 0.00 0.00 0.00 67 1013.9
20260902211514 72 208 3.0 0.0 0.00 0.00 0.00 68 1013.9
20260902211016 72 238 4.0 0.0 0.00 0.00 0.00 68 1014.1
20260902210513 72 199 4.0 0.0 0.00 0.00 0.00 66 1014.1
20260902210018 72 167 5.0 0.0 0.00 0.00 0.00 66 1014.1
20260902205517 72 282 4.0 0.0 0.00 0.00 0.00 66 1014.1
20260902205012 72 218 4.0 0.0 0.00 0.00 0.00 67 1014.1
20260902204510 71 218 3.0 0.0 0.00 0.00 0.00 70 1014.1
20260902204009 71 171 3.0 0.0 0.00 0.00 0.00 71 1014.1
20260902203512 71 202 3.0 0.0 0.00 0.00 0.00 72 1014.1
20260902203010 71 200 3.0 0.0 0.00 0.00 0.00 72 1014.1
20260902202509 71 214 3.0 0.0 0.00 0.00 0.00 74 1014.2
20260902202009 71 176 3.0 0.0 0.00 0.00 0.00 73 1014.2
20260902201517 71 172 3.0 0.0 0.00 0.00 0.00 74 1014.2
20260902201008 71 205 3.0 0.0 0.00 0.00 0.00 73 1014.4
20260902200508 71 157 3.0 0.0 0.00 0.00 0.00 74 1014.4
20260902200008 71 254 3.0 0.0 0.00 0.00 0.00 74 1014.4
20260902195506 70 165 3.0 0.0 0.00 0.00 0.00 75 1014.4
20260902195006 70 163 3.0 0.0 0.00 0.00 0.00 73 1014.4
20260902194506 70 150 3.0 0.0 0.00 0.00 0.00 73 1014.4
20260902194005 70 201 3.0 0.0 0.00 0.00 0.00 74 1014.5
20260902193505 70 233 3.0 0.0 0.00 0.00 0.00 75 1014.5
20260902193005 70 202 3.0 0.0 0.00 0.00 0.00 75 1014.5
20260902192504 70 221 3.0 0.0 0.00 0.00 0.00 74 1014.8
20260902192008 70 123 3.0 0.0 0.00 0.00 0.00 74 1014.8
20260902191505 70 198 3.0 0.0 0.00 0.00 0.00 76 1014.8
20260902191004 70 184 3.0 0.0 0.00 0.00 0.00 74 1014.7
20260902190504 70 180 3.0 0.0 0.00 0.00 0.00 74 1014.7
20260902190004 70 117 3.0 0.0 0.00 0.00 0.00 74 1014.7
20260902185504 70 175 3.0 0.0 0.00 0.00 0.00 73 1014.7
20260902185006 70 198 3.0 0.0 0.00 0.00 0.00 73 1014.7
20260902184503 70 196 3.0 0.0 0.00 0.00 0.00 73 1014.7
20260902184003 70 115 3.0 0.0 0.00 0.00 0.00 72 1014.8
20260902183600 69 166 3.0 0.0 0.00 0.00 0.00 69 1014.8
20260902183100 70 128 3.0 0.0 0.00 0.00 0.00 72 1014.8
20260902182558 69 169 3.0 0.0 0.00 0.00 0.00 72 1014.8
20260902182058 69 165 3.0 0.0 0.00 0.00 0.00 75 1014.8
20260902181558 69 199 3.0 0.0 0.00 0.00 0.00 75 1014.8
20260902181056 69 175 2.0 0.0 0.00 0.00 0.00 76 1014.8
20260902180555 69 160 2.0 0.0 0.00 0.00 0.00 78 1014.8
20260902180056 68 159 2.0 0.0 0.00 0.00 0.00 80 1014.8
20260902175554 68 224 2.0 0.0 0.00 0.00 0.00 80 1015.0
20260902175054 68 184 2.0 0.0 0.00 0.00 0.00 80 1015.0
20260902174554 68 167 2.0 0.0 0.00 0.00 0.00 80 1015.0
20260902174053 68 163 2.0 0.0 0.00 0.00 0.00 80 1014.9
20260902173552 68 157 3.0 0.0 0.00 0.00 0.00 82 1014.9
20260902173051 67 150 2.0 0.0 0.00 0.00 0.00 83 1014.9
20260902172549 67 208 2.0 0.0 0.00 0.00 0.00 81 1014.8
20260902172051 67 230 2.0 0.0 0.00 0.00 0.00 82 1014.8
20260902171603 67 224 2.0 0.0 0.00 0.00 0.00 83 1014.8
20260902171048 67 183 2.0 0.0 0.00 0.00 0.00 82 1014.7
20260902170549 67 265 2.0 0.0 0.00 0.00 0.00 82 1014.7
20260902170048 67 172 2.0 0.0 0.00 0.00 0.00 83 1014.7
20260902165546 66 196 1.0 0.0 0.00 0.00 0.00 85 1014.6
20260902165045 66 115 1.0 0.0 0.00 0.00 0.00 86 1014.6
20260902164543 65 92 1.0 0.0 0.00 0.00 0.00 86 1014.6
20260902164045 65 189 2.0 0.0 0.00 0.00 0.00 87 1014.8
20260902163540 64 202 2.0 0.0 0.00 0.00 0.00 88 1014.8
20260902163040 64 186 2.0 0.0 0.00 0.00 0.00 89 1014.8
20260902162538 64 185 2.0 0.0 0.00 0.00 0.00 89 1014.7
20260902162038 63 188 2.0 0.0 0.00 0.00 0.00 90 1014.7
20260902161537 63 173 1.0 0.0 0.00 0.00 0.00 90 1014.7
20260902161037 63 188 1.0 0.0 0.00 0.00 0.00 90 1014.7
20260902160536 63 149 1.0 0.0 0.00 0.00 0.00 90 1014.7
20260902160046 63 175 1.0 0.0 0.00 0.00 0.00 91 1014.7
20260902155536 63 187 1.0 0.0 0.00 0.00 0.00 91 1014.5
20260902155040 63 44 1.0 0.0 0.00 0.00 0.00 92 1014.5
20260902154535 62 147 1.0 0.0 0.00 0.00 0.00 92 1014.5
20260902154034 62 130 1.0 0.0 0.00 0.00 0.00 93 1014.5
20260902153533 62 126 1.0 0.0 0.00 0.00 0.00 93 1014.5
20260902153034 62 176 1.0 0.0 0.00 0.00 0.00 94 1014.5
20260902152532 62 138 1.0 0.0 0.00 0.00 0.00 94 1014.5
20260902152032 62 188 1.0 0.0 0.00 0.00 0.00 94 1014.5
20260902151531 62 165 1.0 0.0 0.00 0.00 0.00 95 1014.5
20260902151034 62 200 1.0 0.0 0.00 0.00 0.00 95 1014.6
20260902150530 61 169 2.0 0.0 0.00 0.00 0.00 95 1014.6
20260902150029 61 205 1.0 0.0 0.00 0.00 0.00 95 1014.6
20260902145529 61 200 1.0 0.0 0.00 0.00 0.00 96 1014.6
20260902145031 61 169 1.0 0.0 0.00 0.00 0.00 96 1014.6
20260902144528 61 197 1.0 0.0 0.00 0.00 0.00 96 1014.6
20260902144027 61 202 1.0 0.0 0.00 0.00 0.00 96 1014.5
20260902143527 61 159 1.0 0.0 0.00 0.00 0.00 96 1014.5
20260902143027 60 219 1.0 0.0 0.00 0.00 0.00 96 1014.5
20260902142526 60 172 0.0 0.0 0.00 0.00 0.00 96 1014.3
20260902142026 60 144 0.0 0.0 0.00 0.00 0.00 96 1014.3
20260902141526 60 65 0.0 0.0 0.00 0.00 0.00 96 1014.3
20260902141027 59 65 0.0 0.0 0.00 0.00 0.00 96 1014.2
20260902140526 59 65 0.0 0.0 0.00 0.00 0.00 96 1014.2
20260902140034 59 65 0.0 0.0 0.00 0.00 0.00 96 1014.2
20260902135524 58 65 0.0 0.0 0.00 0.00 0.00 96 1014.1
20260902135024 58 65 0.0 0.0 0.00 0.00 0.00 96 1014.1
20260902134524 58 65 0.0 0.0 0.00 0.00 0.00 95 1014.1
20260902134023 58 65 0.0 0.0 0.00 0.00 0.00 95 1014.0
20260902133523 58 65 0.0 0.0 0.00 0.00 0.00 96 1014.0
20260902133023 58 65 0.0 0.0 0.00 0.00 0.00 95 1014.0
20260902132522 58 65 0.0 0.0 0.00 0.00 0.00 95 1013.9
20260902132022 59 65 0.0 0.0 0.00 0.00 0.00 95 1013.9
20260902131522 59 65 1.0 0.0 0.00 0.00 0.00 96 1013.9
20260902131026 59 65 1.0 0.0 0.00 0.00 0.00 96 1013.7
20260902130523 59 63 1.0 0.0 0.00 0.00 0.00 96 1013.7
20260902130022 59 79 1.0 0.0 0.00 0.00 0.00 96 1013.7
20260902125522 58 109 1.0 0.0 0.00 0.00 0.00 96 1013.5
20260902125023 58 57 1.0 0.0 0.00 0.00 0.00 96 1013.5
20260902124522 58 36 2.0 0.0 0.00 0.00 0.00 96 1013.5
20260902124021 58 35 2.0 0.0 0.00 0.00 0.00 96 1013.7
20260902123520 58 30 1.0 0.0 0.00 0.00 0.00 95 1013.7
20260902123025 58 37 1.0 0.0 0.00 0.00 0.00 95 1013.7
20260902122520 58 55 1.0 0.0 0.00 0.00 0.00 95 1013.7
20260902122019 58 31 2.0 0.0 0.00 0.00 0.00 95 1013.7
20260902121519 58 48 1.0 0.0 0.00 0.00 0.00 95 1013.7
20260902121019 58 55 0.0 0.0 0.00 0.00 0.00 95 1013.8
20260902120519 58 195 0.0 0.0 0.00 0.00 0.00 95 1013.8
20260902120019 58 195 0.0 0.0 0.00 0.00 0.00 95 1013.8
20260902115522 58 195 0.0 0.0 0.00 0.00 0.00 95 1013.8
20260902115018 58 195 0.0 0.0 0.00 0.00 0.00 95 1013.8
20260902114518 58 195 0.0 0.0 0.00 0.00 0.00 95 1013.8
20260902114023 59 195 0.0 0.0 0.00 0.00 0.00 95 1013.7
20260902113517 59 195 0.0 0.0 0.00 0.00 0.00 95 1013.7
20260902113017 59 195 0.0 0.0 0.00 0.00 0.00 95 1013.7
20260902112517 59 195 0.0 0.0 0.00 0.00 0.00 95 1013.9
20260902112017 59 195 0.0 0.0 0.00 0.00 0.00 95 1013.9
20260902111534 59 195 0.0 0.0 0.00 0.00 0.00 95 1013.9
20260902111016 59 195 0.0 0.0 0.00 0.00 0.00 95 1013.6
20260902110516 59 195 0.0 0.0 0.00 0.00 0.00 95 1013.6
20260902110043 59 195 0.0 0.0 0.00 0.00 0.00 94 1013.6
20260902105515 59 195 0.0 0.0 0.00 0.00 0.00 95 1013.7
20260902105015 59 195 0.0 0.0 0.00 0.00 0.00 95 1013.7
20260902104520 59 195 0.0 0.0 0.00 0.00 0.00 95 1013.7
20260902104016 59 195 0.0 0.0 0.00 0.00 0.00 94 1013.7
20260902103514 58 195 0.0 0.0 0.00 0.00 0.00 94 1013.7
20260902103014 58 195 0.0 0.0 0.00 0.00 0.00 94 1013.7
20260902102518 58 195 0.0 0.0 0.00 0.00 0.00 94 1013.7
20260902102013 58 195 0.0 0.0 0.00 0.00 0.00 94 1013.7
20260902101513 59 195 0.0 0.0 0.00 0.00 0.00 94 1013.7
20260902101013 59 195 0.0 0.0 0.00 0.00 0.00 94 1013.7
20260902100517 59 195 0.0 0.0 0.00 0.00 0.00 94 1013.7
20260902100015 59 195 0.0 0.0 0.00 0.00 0.00 94 1013.7
20260902095512 59 195 0.0 0.0 0.00 0.00 0.00 94 1013.7
20260902095012 59 195 0.0 0.0 0.00 0.00 0.00 93 1013.7
20260902094512 59 195 0.0 0.0 0.00 0.00 0.00 93 1013.7
20260902094012 59 195 0.0 0.0 0.00 0.00 0.00 93 1013.7
20260902093511 59 195 0.0 0.0 0.00 0.00 0.00 93 1013.7
20260902093010 59 195 0.0 0.0 0.00 0.00 0.00 93 1013.7
20260902092510 59 195 0.0 0.0 0.00 0.00 0.00 93 1013.9
20260902092012 59 195 0.0 0.0 0.00 0.00 0.00 93 1013.9
20260902091510 59 195 0.0 0.0 0.00 0.00 0.00 93 1013.9
20260902091011 59 195 0.0 0.0 0.00 0.00 0.00 93 1014.0
20260902090509 59 195 0.0 0.0 0.00 0.00 0.00 93 1014.0
20260902090009 59 195 0.0 0.0 0.00 0.00 0.00 93 1014.0
20260902085508 59 195 0.0 0.0 0.00 0.00 0.00 93 1014.0
20260902085008 59 195 0.0 0.0 0.00 0.00 0.00 93 1014.0
20260902084508 59 195 0.0 0.0 0.00 0.00 0.00 93 1014.0
20260902084010 59 195 0.0 0.0 0.00 0.00 0.00 93 1014.1
20260902083511 59 195 0.0 0.0 0.00 0.00 0.00 93 1014.1
20260902083009 59 195 1.0 0.0 0.00 0.00 0.00 93 1014.1
20260902082508 60 195 1.0 0.0 0.00 0.00 0.00 93 1014.1
20260902082006 60 195 1.0 0.0 0.00 0.00 0.00 92 1014.1
20260902081506 60 195 1.0 0.0 0.00 0.00 0.00 92 1014.1
20260902081005 60 195 0.0 0.0 0.00 0.00 0.00 92 1014.1
20260902080505 60 159 0.0 0.0 0.00 0.00 0.00 92 1014.1
20260902080004 60 159 0.0 0.0 0.00 0.00 0.00 92 1014.1
20260902075504 60 159 0.0 0.0 0.00 0.00 0.00 92 1014.1
20260902075004 60 159 0.0 0.0 0.00 0.00 0.00 92 1014.1
20260902074504 60 159 0.0 0.0 0.00 0.00 0.00 92 1014.1
20260902074005 60 159 0.0 0.0 0.00 0.00 0.00 92 1013.7
20260902073503 60 159 1.0 0.0 0.00 0.00 0.00 92 1013.7
20260902073003 60 190 1.0 0.0 0.00 0.00 0.00 92 1013.7
20260902072503 60 157 1.0 0.0 0.00 0.00 0.00 92 1013.7
20260902072003 60 161 1.0 0.0 0.00 0.00 0.00 91 1013.7
20260902071502 60 169 0.0 0.0 0.00 0.00 0.00 91 1013.7
20260902071004 60 211 0.0 0.0 0.00 0.00 0.00 91 1013.7
20260902070503 60 211 1.0 0.0 0.00 0.00 0.00 91 1013.7
20260902070000 61 197 1.0 0.0 0.00 0.00 0.01 91 1013.7
20260902065603 61 196 1.0 0.0 0.00 0.00 0.01 91 1013.6
20260902065100 61 188 2.0 0.0 0.00 0.00 0.01 91 1013.6
20260902064600 61 169 2.0 0.0 0.00 0.00 0.01 91 1013.6
20260902064101 61 163 2.0 0.0 0.00 0.00 0.01 91 1013.6
20260902063559 61 178 2.0 0.0 0.00 0.00 0.01 91 1013.6
20260902063104 60 163 1.0 0.0 0.00 0.00 0.01 91 1013.6
20260902062600 61 194 2.0 0.0 0.00 0.00 0.01 91 1013.6
20260902062059 61 182 2.0 0.0 0.00 0.00 0.01 91 1013.6
20260902061613 61 234 2.0 0.0 0.00 0.00 0.01 91 1013.6
20260902061059 61 160 2.0 0.0 0.00 0.00 0.01 91 1013.6
20260902060602 61 192 2.0 0.0 0.00 0.00 0.01 90 1013.6
20260902060059 61 182 2.0 0.0 0.00 0.00 0.01 90 1013.6
20260902055603 61 196 2.0 0.0 0.00 0.00 0.01 90 1013.5
20260902055059 61 198 2.0 0.0 0.00 0.00 0.01 90 1013.5
20260902054559 61 195 3.0 0.0 0.00 0.00 0.01 90 1013.5
20260902054059 61 156 3.0 0.0 0.00 0.00 0.01 90 1013.3
20260902053601 61 169 3.0 0.0 0.00 0.00 0.01 90 1013.3
20260902053058 61 187 3.0 0.0 0.00 0.00 0.01 90 1013.3
20260902052601 61 159 3.0 0.0 0.00 0.00 0.01 89 1013.5
20260902052057 61 175 2.0 0.0 0.00 0.00 0.01 89 1013.5
20260902051600 61 186 2.0 0.0 0.00 0.00 0.01 89 1013.5
20260902051057 61 192 2.0 0.0 0.00 0.00 0.01 88 1013.6
20260902050557 62 187 1.0 0.0 0.00 0.00 0.01 88 1013.6
20260902050057 62 196 1.0 0.0 0.00 0.00 0.01 87 1013.6
20260902045601 62 167 2.0 0.0 0.00 0.00 0.01 87 1013.5
20260902045057 62 188 2.0 0.0 0.00 0.00 0.01 86 1013.5
20260902044557 62 182 1.0 0.0 0.00 0.00 0.01 86 1013.5
20260902044057 62 158 1.0 0.0 0.00 0.00 0.01 85 1013.3
20260902043558 62 198 2.0 0.0 0.00 0.00 0.01 85 1013.3
20260902043103 62 246 2.0 0.0 0.00 0.00 0.01 85 1013.3
20260902042556 62 300 2.0 0.0 0.00 0.00 0.01 85 1013.1
20260902042056 62 267 2.0 0.0 0.00 0.00 0.01 84 1013.1
20260902041555 62 301 3.0 0.0 0.00 0.00 0.01 85 1013.1
20260902041056 62 175 4.0 0.0 0.00 0.00 0.01 86 1013.0
20260902040558 62 267 4.0 0.0 0.00 0.00 0.01 88 1013.0
20260902040055 61 208 4.0 0.0 0.00 0.00 0.01 89 1013.0
20260902035556 61 236 3.0 0.0 0.00 0.00 0.01 90 1012.8
20260902035055 61 181 3.0 0.0 0.00 0.00 0.01 90 1012.8
20260902034555 62 273 3.0 0.0 0.00 0.00 0.01 90 1012.8
20260902034054 62 267 4.0 0.0 0.00 0.00 0.01 91 1012.5
20260902033554 62 262 4.0 0.0 0.00 0.00 0.01 91 1012.5
20260902033106 62 209 4.0 0.0 0.00 0.00 0.01 91 1012.5
20260902032554 62 207 3.0 0.0 0.00 0.00 0.01 91 1012.5
20260902032054 62 229 3.0 0.0 0.00 0.00 0.01 90 1012.5
20260902031554 62 281 4.0 0.0 0.00 0.00 0.01 90 1012.5
20260902031054 62 269 3.0 0.0 0.00 0.00 0.01 90 1012.4
20260902030556 62 236 3.0 0.0 0.00 0.00 0.01 90 1012.4
20260902030053 62 172 2.0 0.0 0.00 0.00 0.01 90 1012.4
20260902025554 62 198 3.0 0.0 0.00 0.00 0.01 89 1012.4
20260902025054 62 207 2.0 0.0 0.00 0.00 0.01 89 1012.4
20260902024555 62 206 2.0 0.0 0.00 0.00 0.01 88 1012.4
20260902024053 62 214 2.0 0.0 0.00 0.00 0.01 87 1012.3
20260902023552 62 189 1.0 0.0 0.00 0.00 0.01 86 1012.3
20260902023054 62 177 1.0 0.0 0.00 0.00 0.01 86 1012.3
20260902022553 62 192 2.0 0.0 0.00 0.00 0.01 85 1012.3
20260902022052 63 201 2.0 0.0 0.00 0.00 0.01 85 1012.3
20260902021557 63 209 2.0 0.0 0.00 0.00 0.01 85 1012.3
20260902021052 63 172 2.0 0.0 0.00 0.00 0.01 84 1012.4
20260902020554 63 225 2.0 0.0 0.00 0.00 0.01 84 1012.4
20260902020052 64 215 2.0 0.0 0.00 0.00 0.01 84 1012.4
20260902015556 64 181 2.0 0.0 0.00 0.00 0.01 84 1012.3
20260902015052 64 211 2.0 0.0 0.00 0.00 0.01 84 1012.3
20260902014552 64 184 3.0 0.0 0.00 0.00 0.01 84 1012.3
20260902014052 65 205 3.0 0.0 0.00 0.00 0.01 83 1012.3